Temp
10 10 10 10 10 10 10 10 10 10 9 9 9 9 9 8 8 8 8 7 7 7 6 6 6 6 5 5 5 5 5 4 4 4 4 3 3 3 3 2 2 2 2 1 1 1 0 0 -0 -1 -1 -1 -1 -1 -2 -2 -2 -2 -2 -2 -2 -2 -2 -2 -2 -2 -2 -1 -1
11 10 10 10 10 10 10 10 10 10 10 9 9 9 9 8 8 8 8 7 7 7 6 6 6 5 5 5 5 5 5 4 4 4 4 3 3 3 2 2 2 2 1 1 1 1 0 -0 -0 -1 -1 -1 -1 -1 -2 -2 -2 -2 -2 -2 -3 -3 -3 -3 -3 -2 -2 -2 -2
11 10 10 10 10 10 10 10 10 10 10 9 9 9 8 8 8 8 8 7 7 7 6 6 6 5 5 5 5 5 4 4 4 4 3 3 3 3 2 2 2 1 1 1 1 0 0 -0 -0 -1 -1 -1 -1 -1 -2 -2 -2 -2 -2 -3 -3 -3 -3 -3 -3 -3 -3 -3 -2
11 10 10 10 10 10 10 10 10 10 9 9 9 8 8 8 8 8 8 7 7 7 6 6 6 5 5 5 5 4 4 4 4 3 3 3 3 2 2 2 2 1 1 1 0 0 -0 -0 -1 -1 -1 -1 -1 -1 -2 -2 -2 -2 -3 -3 -3 -3 -3 -3 -3 -3 -3 -3 -3
10 10 10 10 10 10 9 9 9 9 9 9 8 8 8 8 8 8 7 7 7 7 6 6 5 5 5 4 4 4 4 4 3 3 3 3 3 2 2 2 1 1 1 0 0 -0 -0 -1 -1 -1 -1 -1 -1 -2 -2 -2 -2 -2 -3 -3 -3 -3 -3 -3 -3 -3 -3 -3 -3
10 10 10 10 9 9 9 9 9 9 8 8 8 8 8 8 8 7 7 7 7 6 6 5 5 5 4 4 4 3 3 3 3 3 3 3 3 2 2 2 1 1 1 0 -0 -0 -1 -1 -1 -1 -1 -2 -2 -2 -2 -2 -2 -3 -3 -3 -3 -3 -4 -4 -4 -4 -4 -4 -4
10 10 9 9 9 9 9 8 8 8 8 8 7 7 7 7 7 7 7 7 6 6 5 5 5 4 4 4 3 3 3 3 3 3 3 2 2 2 2 1 1 1 0 0 -0 -1 -1 -1 -1 -2 -2 -2 -2 -2 -2 -3 -3 -3 -3 -3 -3 -4 -4 -4 -4 -4 -4 -4 -4
10 9 9 9 9 8 8 8 8 8 7 7 7 7 7 7 7 7 6 6 6 5 5 5 4 4 4 4 3 3 3 3 2 2 2 2 2 2 1 1 1 0 0 -0 -1 -1 -1 -1 -2 -2 -2 -2 -2 -2 -3 -3 -3 -3 -3 -3 -4 -4 -4 -4 -4 -4 -4 -4 -4
9 9 9 9 9 9 8 8 8 8 7 7 7 7 7 7 7 6 6 6 6 5 5 5 4 4 4 3 3 3 2 2 2 2 2 2 2 1 1 1 0 0 -0 -1 -1 -1 -1 -1 -2 -2 -2 -2 -2 -3 -3 -3 -3 -3 -3 -4 -4 -4 -4 -4 -4 -4 -4 -4 -4
9 9 9 9 9 9 9 8 8 8 8 8 8 7 7 7 6 6 6 6 5 5 5 5 4 4 4 3 3 3 2 2 2 2 2 1 1 1 1 1 0 0 -0 -1 -1 -1 -1 -2 -2 -2 -2 -2 -2 -3 -3 -3 -3 -3 -3 -4 -4 -4 -4 -4 -4 -4 -5 -5 -4
9 9 9 9 9 9 9 9 8 8 8 8 8 8 7 7 7 6 6 6 5 5 5 5 4 4 4 3 3 3 2 2 2 1 1 1 1 1 1 1 0 0 -0 -1 -1 -1 -2 -2 -2 -2 -2 -2 -3 -3 -3 -3 -3 -3 -4 -4 -4 -4 -4 -4 -5 -5 -5 -5 -5
9 9 9 9 9 9 9 9 9 9 9 8 8 8 8 7 7 7 6 6 5 5 5 5 4 4 4 3 3 2 2 2 1 1 1 1 1 1 1 1 0 0 -0 -1 -1 -1 -2 -2 -2 -2 -2 -2 -3 -3 -3 -3 -3 -3 -4 -4 -4 -4 -4 -5 -5 -5 -5 -5 -5
9 9 9 9 9 9 9 9 9 9 9 9 9 8 8 8 7 7 6 6 6 5 5 5 4 4 3 3 3 3 2 2 2 1 1 1 1 1 1 1 1 0 -0 -1 -1 -1 -2 -2 -2 -2 -2 -2 -3 -3 -3 -3 -3 -4 -4 -4 -4 -4 -4 -5 -5 -5 -5 -5 -5
9 9 9 9 9 9 9 9 9 9 9 9 9 9 9 8 8 7 7 7 6 6 5 5 4 4 4 3 3 3 3 2 2 2 2 1 1 1 1 1 1 1 0 -0 -1 -1 -1 -2 -2 -2 -2 -2 -3 -3 -3 -3 -3 -3 -4 -4 -4 -4 -4 -5 -5 -5 -5 -5 -5
9 9 9 9 9 9 9 9 9 9 9 9 9 9 9 9 8 8 7 7 7 6 6 5 5 4 4 4 3 3 3 3 3 2 2 2 2 2 2 2 1 1 1 0 -1 -1 -1 -1 -2 -2 -2 -2 -3 -3 -3 -3 -3 -4 -4 -4 -4 -4 -4 -5 -5 -5 -5 -5 -5
9 9 9 9 9 9 9 9 9 9 9 9 9 9 9 9 8 8 8 8 7 7 6 6 5 5 4 4 4 4 4 3 3 3 3 3 3 3 3 2 2 2 1 1 0 -0 -1 -1 -2 -2 -2 -2 -3 -3 -3 -3 -4 -4 -4 -4 -4 -4 -4 -5 -5 -5 -5 -5 -6
8 8 8 8 8 9 9 9 8 8 8 8 8 8 8 8 8 8 8 8 8 7 7 7 6 5 5 4 4 4 4 4 4 4 4 4 4 3 3 3 3 2 2 1 0 -0 -1 -1 -2 -2 -2 -3 -3 -3 -3 -4 -4 -4 -4 -4 -4 -4 -4 -5 -5 -5 -5 -5 -6
8 8 8 8 8 8 8 8 8 8 8 8 8 8 8 8 8 8 8 8 8 7 7 7 6 6 5 5 4 4 4 4 4 4 4 4 4 4 3 3 3 3 2 1 1 0 -0 -1 -1 -2 -2 -3 -3 -3 -4 -4 -4 -4 -4 -4 -4 -5 -5 -5 -5 -5 -5 -6 -6
8 8 8 8 8 8 8 8 8 8 8 8 8 8 8 8 8 7 7 8 7 7 7 7 6 6 6 5 5 4 4 4 4 4 4 4 4 4 3 3 3 2 2 2 1 1 0 -1 -1 -2 -3 -3 -3 -4 -4 -4 -4 -4 -4 -5 -5 -5 -5 -5 -5 -5 -6 -6 -6
8 8 8 8 8 8 8 8 8 8 8 8 8 8 8 8 7 7 7 7 7 7 6 6 6 6 6 5 5 4 4 4 4 4 4 4 3 3 3 3 3 3 2 2 1 1 0 -0 -1 -2 -2 -3 -3 -4 -4 -4 -4 -5 -5 -5 -5 -5 -5 -5 -5 -6 -6 -6 -6
8 8 8 8 8 8 8 8 8 8 8 8 8 8 7 7 7 7 7 7 6 6 6 6 6 6 5 5 4 4 4 4 3 3 3 3 3 3 3 3 3 2 2 2 2 1 1 -0 -1 -2 -2 -3 -3 -4 -4 -4 -5 -5 -5 -5 -5 -5 -5 -6 -6 -6 -6 -6 -6
8 8 8 8 8 8 8 8 8 8 8 8 8 7 7 7 7 6 6 6 5 5 5 5 5 5 5 4 4 4 3 3 3 3 3 3 3 3 3 3 2 2 2 2 2 2 1 0 -1 -1 -2 -3 -3 -4 -4 -4 -5 -5 -5 -5 -5 -5 -6 -6 -6 -6 -6 -6 -6
8 8 8 8 8 8 8 8 8 8 8 8 7 7 7 7 6 6 5 5 5 4 4 4 4 4 4 4 3 3 3 2 2 2 2 2 3 3 3 2 2 2 2 2 2 2 1 -0 -1 -1 -2 -3 -3 -4 -4 -5 -5 -5 -5 -5 -5 -6 -6 -6 -6 -6 -6 -7 -7
8 8 8 8 8 8 8 8 8 8 8 8 7 7 6 6 6 5 5 4 4 4 4 4 3 3 3 3 3 2 2 2 2 2 2 2 2 2 2 2 2 2 2 2 2 1 1 -0 -1 -2 -2 -3 -3 -4 -4 -5 -5 -5 -5 -6 -6 -6 -6 -6 -6 -7 -7 -7 -7
8 8 8 8 8 8 8 8 8 8 8 7 7 6 6 6 5 5 4 4 4 3 3 3 3 3 2 2 2 2 2 2 2 2 2 2 2 1 1 1 2 2 2 2 2 1 0 -0 -1 -2 -2 -3 -3 -4 -4 -5 -5 -5 -6 -6 -6 -6 -6 -7 -7 -7 -7 -7 -7
8 8 8 8 8 8 8 8 8 8 7 7 6 6 6 5 5 5 4 4 3 3 3 2 2 2 2 2 2 2 2 2 2 2 2 2 1 1 1 1 1 2 2 2 1 1 -0 -1 -1 -2 -3 -3 -4 -4 -4 -5 -5 -5 -6 -6 -6 -6 -7 -7 -7 -7 -7 -7 -7
7 7 7 7 8 8 8 8 8 7 7 7 6 6 5 5 4 4 4 3 3 3 2 2 2 2 2 1 1 1 2 2 2 2 2 1 1 1 1 1 1 1 1 1 1 0 -1 -1 -2 -3 -3 -3 -4 -4 -5 -5 -5 -5 -6 -6 -6 -7 -7 -7 -7 -7 -7 -7 -7
7 7 7 7 7 7 7 7 7 7 7 6 6 5 5 4 4 4 3 3 3 2 2 2 1 1 1 1 1 1 2 2 2 1 1 1 1 1 1 1 1 1 1 1 0 -0 -1 -2 -3 -3 -4 -4 -4 -4 -5 -5 -5 -5 -6 -6 -6 -7 -7 -7 -7 -7 -7 -7 -7
7 7 7 7 7 7 7 7 7 6 6 6 5 5 4 4 4 3 3 2 2 2 1 1 1 1 1 1 1 1 1 1 1 1 1 1 1 1 1 1 1 1 1 0 -0 -1 -1 -2 -3 -4 -4 -5 -5 -5 -5 -5 -5 -6 -6 -6 -6 -7 -7 -7 -7 -7 -8 -8 -8
7 7 7 7 7 7 7 7 6 6 6 5 5 5 4 4 3 3 2 2 2 1 1 1 0 0 0 0 1 1 1 1 1 1 1 1 1 1 1 1 1 1 1 0 -0 -1 -2 -2 -3 -4 -4 -5 -5 -5 -5 -5 -5 -6 -6 -6 -6 -7 -7 -7 -7 -8 -8 -8 -8
7 7 7 7 7 7 6 6 6 6 5 5 4 4 4 3 3 3 2 2 1 1 1 0 0 0 0 0 0 0 0 0 0 0 0 0 1 1 1 1 1 1 1 -0 -1 -1 -2 -3 -3 -4 -4 -5 -5 -6 -6 -6 -5 -6 -6 -6 -6 -7 -7 -7 -7 -8 -8 -8 -9
7 7 7 6 6 6 6 6 5 5 5 4 4 4 3 3 3 2 2 1 1 1 0 0 0 0 0 0 -0 -0 -0 -0 -0 -0 -0 -0 0 0 0 0 0 0 0 -0 -1 -1 -2 -3 -3 -4 -4 -5 -5 -6 -6 -6 -6 -6 -6 -6 -6 -6 -7 -7 -7 -8 -8 -8 -9
7 6 6 6 6 6 6 5 5 4 4 4 4 3 3 3 3 2 2 1 1 1 0 0 0 0 -0 -0 -0 -0 -0 -0 -0 -0 -0 -0 -0 -0 -0 -0 -0 -0 -0 -1 -1 -2 -2 -3 -3 -4 -4 -5 -5 -5 -6 -6 -6 -6 -6 -6 -6 -7 -7 -7 -7 -8 -8 -8 -8
6 6 6 6 6 5 5 5 4 4 4 4 3 3 3 3 2 2 2 1 1 0 0 0 0 -0 -0 -0 -0 -0 -1 -1 -1 -1 -1 -1 -1 -1 -1 -1 -1 -1 -1 -1 -1 -2 -2 -3 -3 -4 -4 -5 -5 -5 -6 -6 -6 -6 -6 -6 -7 -7 -7 -7 -7 -8 -8 -8 -8
6 6 5 5 5 5 5 4 4 4 3 3 3 3 3 3 2 2 2 1 1 0 0 0 -0 -0 -0 -0 -1 -1 -1 -1 -1 -1 -1 -1 -1 -1 -1 -1 -1 -1 -1 -2 -2 -2 -2 -3 -3 -4 -4 -5 -5 -5 -6 -6 -6 -6 -6 -6 -7 -7 -7 -7 -7 -8 -8 -8 -8
5 5 5 5 5 5 4 4 4 3 3 3 3 3 3 2 2 2 1 1 1 0 0 0 -0 -0 -0 -0 -1 -1 -1 -1 -1 -1 -1 -2 -2 -2 -2 -2 -1 -2 -2 -2 -2 -3 -3 -3 -4 -4 -4 -5 -5 -5 -6 -6 -6 -6 -6 -6 -6 -7 -7 -7 -7 -7 -8 -8 -8
5 5 5 4 4 4 4 4 4 3 3 3 2 2 2 2 2 2 1 1 1 0 0 0 -0 -0 -0 -0 -1 -1 -1 -1 -1 -2 -2 -2 -2 -2 -2 -2 -2 -2 -2 -2 -3 -3 -3 -4 -4 -4 -5 -5 -5 -6 -6 -6 -6 -6 -6 -6 -6 -7 -7 -7 -7 -7 -7 -8 -8
5 5 4 4 4 4 4 4 3 3 3 2 2 2 2 2 1 1 1 1 0 0 0 0 -0 -0 -0 -0 -1 -1 -1 -1 -2 -2 -2 -2 -2 -2 -2 -2 -2 -2 -2 -3 -3 -3 -4 -4 -4 -5 -5 -5 -5 -6 -6 -6 -6 -6 -6 -6 -6 -6 -7 -7 -7 -7 -7 -7 -7
5 4 4 4 4 4 4 3 3 3 2 2 2 2 1 1 1 1 1 0 0 0 0 -0 -0 -0 -0 -1 -1 -1 -1 -1 -2 -2 -2 -2 -2 -2 -2 -3 -3 -3 -3 -3 -3 -4 -4 -4 -4 -5 -5 -5 -6 -6 -6 -6 -6 -6 -6 -6 -6 -6 -7 -7 -7 -7 -7 -7 -7
5 4 4 4 4 3 3 3 3 2 2 2 1 1 1 1 1 1 0 0 -0 -0 -0 -0 -0 -0 -1 -1 -1 -1 -1 -1 -2 -2 -2 -2 -2 -3 -3 -3 -3 -3 -3 -3 -4 -4 -4 -4 -4 -5 -5 -5 -6 -6 -6 -6 -6 -6 -6 -6 -6 -6 -7 -7 -7 -7 -7 -7 -7
4 4 4 4 4 3 3 2 2 2 2 1 1 1 1 1 0 0 0 -0 -0 -0 -0 -0 -0 -1 -1 -1 -1 -1 -1 -2 -2 -2 -2 -2 -3 -3 -3 -3 -3 -3 -3 -4 -4 -4 -4 -4 -4 -5 -5 -5 -6 -6 -6 -6 -6 -6 -7 -7 -7 -6 -6 -7 -7 -7 -7 -7 -7
Height
1471 1470 1469 1469 1468 1467 1466 1465 1464 1464 1463 1462 1461 1461 1460 1459 1458 1457 1457 1456 1455 1454 1454 1453 1452 1451 1450 1449 1449 1448 1448 1448 1448 1447 1447 1447 1447 1446 1447 1447 1447 1447 1447 1447 1447 1447 1447 1446 1446 1446 1445 1445 1445 1446 1446 1446 1446 1446 1446 1446 1446 1446 1447 1448 1448 1449 1449 1450 1450
1470 1469 1468 1467 1466 1465 1464 1463 1462 1461 1460 1459 1459 1458 1457 1457 1455 1454 1454 1453 1453 1452 1451 1450 1449 1449 1448 1447 1446 1445 1445 1444 1444 1444 1444 1444 1444 1444 1444 1444 1444 1444 1444 1444 1444 1444 1444 1444 1443 1443 1442 1442 1442 1442 1442 1442 1443 1443 1443 1443 1443 1444 1444 1444 1445 1445 1447 1447 1448
1468 1467 1466 1465 1464 1463 1462 1461 1460 1459 1458 1457 1456 1456 1455 1454 1453 1452 1451 1450 1450 1449 1449 1448 1447 1446 1445 1444 1443 1442 1442 1441 1441 1441 1441 1441 1441 1441 1441 1440 1440 1440 1440 1441 1441 1441 1441 1441 1440 1440 1439 1439 1439 1439 1439 1439 1440 1440 1440 1440 1440 1441 1441 1441 1442 1443 1444 1444 1445
1466 1465 1464 1464 1462 1461 1460 1459 1457 1456 1456 1455 1454 1453 1452 1451 1450 1449 1448 1447 1447 1446 1445 1445 1444 1444 1443 1442 1440 1439 1439 1438 1438 1438 1438 1438 1438 1437 1437 1437 1437 1437 1437 1437 1438 1438 1438 1438 1438 1437 1436 1436 1435 1435 1436 1436 1437 1437 1437 1437 1438 1438 1438 1438 1439 1440 1441 1441 1442
1465 1464 1463 1462 1460 1459 1458 1457 1455 1454 1453 1453 1452 1450 1449 1448 1447 1446 1445 1444 1444 1443 1443 1442 1442 1441 1440 1439 1438 1437 1436 1435 1435 1435 1434 1434 1434 1434 1434 1434 1434 1434 1434 1434 1434 1435 1435 1435 1435 1434 1433 1433 1433 1433 1433 1434 1434 1434 1434 1435 1435 1435 1435 1436 1436 1437 1438 1438 1439
1464 1462 1461 1460 1459 1457 1456 1455 1454 1453 1451 1450 1449 1448 1446 1445 1444 1443 1442 1441 1441 1440 1440 1439 1439 1438 1437 1436 1435 1434 1433 1432 1432 1431 1431 1431 1431 1431 1430 1430 1430 1430 1431 1431 1431 1432 1432 1432 1432 1431 1430 1430 1430 1430 1430 1431 1432 1432 1432 1432 1432 1433 1433 1433 1434 1434 1435 1435 1436
1462 1461 1460 1459 1457 1456 1454 1453 1452 1451 1450 1449 1447 1445 1444 1443 1442 1440 1439 1439 1438 1438 1437 1437 1436 1435 1434 1434 1433 1431 1430 1429 1429 1428 1428 1428 1428 1427 1427 1427 1427 1427 1428 1428 1428 1429 1429 1429 1429 1428 1428 1427 1427 1427 1428 1429 1429 1429 1429 1429 1429 1430 1430 1431 1431 1432 1432 1432 1433
1461 1459 1459 1457 1456 1455 1453 1452 1451 1449 1448 1447 1445 1443 1442 1441 1440 1438 1437 1436 1435 1434 1434 1433 1433 1432 1431 1431 1430 1429 1428 1427 1426 1425 1425 1424 1424 1424 1424 1424 1424 1424 1424 1425 1425 1426 1426 1426 1426 1425 1425 1424 1424 1424 1425 1425 1426 1426 1426 1426 1427 1427 1428 1428 1428 1429 1429 1429 1430
1459 1458 1457 1456 1454 1453 1452 1451 1449 1448 1446 1445 1443 1442 1440 1439 1438 1436 1435 1434 1433 1432 1431 1430 1429 1429 1428 1428 1427 1426 1425 1424 1424 1423 1422 1422 1421 1421 1421 1421 1421 1421 1421 1422 1423 1423 1423 1423 1423 1422 1422 1422 1422 1422 1422 1423 1423 1423 1423 1424 1424 1424 1425 1425 1426 1426 1426 1427 1428
1458 1457 1455 1454 1453 1452 1450 1449 1448 1446 1445 1443 1441 1440 1439 1438 1436 1434 1433 1432 1431 1429 1429 1427 1426 1426 1425 1424 1424 1423 1422 1422 1421 1420 1419 1419 1419 1418 1418 1418 1418 1418 1419 1419 1419 1420 1420 1420 1419 1419 1418 1419 1419 1419 1419 1420 1420 1420 1420 1421 1421 1422 1422 1422 1423 1423 1424 1424 1425
1457 1455 1454 1453 1452 1450 1449 1448 1446 1444 1443 1441 1440 1438 1437 1435 1434 1433 1431 1430 1429 1427 1426 1425 1424 1423 1422 1421 1421 1420 1419 1419 1418 1418 1417 1416 1415 1415 1415 1415 1415 1415 1415 1416 1416 1417 1417 1416 1415 1415 1415 1416 1416 1416 1417 1417 1417 1417 1418 1418 1419 1419 1419 1419 1420 1420 1421 1422 1423
1455 1454 1453 1452 1450 1449 1448 1446 1444 1443 1441 1439 1438 1436 1435 1433 1432 1431 1429 1428 1426 1425 1423 1423 1422 1421 1419 1418 1418 1417 1417 1416 1416 1415 1414 1414 1413 1412 1412 1412 1412 1412 1412 1412 1413 1413 1413 1412 1412 1412 1412 1412 1413 1413 1414 1414 1414 1414 1414 1415 1415 1416 1416 1416 1417 1418 1418 1419 1420
1454 1453 1451 1450 1449 1447 1446 1444 1443 1441 1439 1438 1436 1434 1433 1431 1430 1429 1427 1425 1424 1422 1421 1420 1419 1418 1417 1416 1415 1414 1414 1413 1413 1412 1411 1411 1410 1409 1409 1409 1408 1408 1409 1409 1409 1409 1409 1409 1408 1408 1409 1409 1409 1410 1410 1410 1411 1411 1411 1412 1412 1412 1413 1413 1414 1415 1415 1416 1417
1452 1451 1450 1449 1447 1446 1444 1443 1441 1439 1438 1436 1434 1433 1431 1429 1428 1426 1425 1423 1421 1420 1419 1418 1417 1416 1414 1413 1412 1412 1411 1410 1410 1409 1409 1408 1407 1407 1406 1405 1405 1405 1405 1405 1405 1405 1405 1405 1405 1405 1405 1406 1406 1407 1407 1407 1407 1408 1408 1409 1409 1409 1409 1410 1411 1412 1413 1413 1413
1451 1449 1448 1447 1445 1444 1443 1441 1439 1438 1436 1434 1433 1431 1429 1428 1426 1424 1423 1421 1419 1418 1417 1415 1414 1413 1412 1411 1410 1409 1408 1408 1407 1406 1405 1404 1404 1403 1403 1402 1402 1402 1402 1402 1402 1402 1402 1401 1401 1402 1402 1403 1403 1404 1404 1404 1404 1404 1404 1405 1405 1406 1407 1408 1408 1409 1409 1409 1410
1449 1448 1446 1445 1444 1442 1441 1439 1437 1436 1434 1432 1431 1429 1427 1425 1424 1422 1420 1419 1417 1415 1414 1413 1411 1410 1409 1409 1408 1407 1406 1405 1404 1403 1402 1401 1401 1400 1399 1399 1399 1399 1399 1399 1399 1398 1398 1398 1398 1399 1399 1399 1399 1400 1401 1401 1401 1401 1401 1402 1403 1403 1404 1404 1405 1406 1406 1407 1407
1447 1446 1445 1444 1442 1440 1439 1437 1435 1434 1432 1430 1428 1427 1425 1423 1422 1420 1418 1416 1415 1413 1411 1410 1409 1408 1407 1406 1405 1404 1403 1402 1401 1400 1399 1398 1398 1397 1397 1396 1396 1395 1395 1395 1395 1395 1395 1395 1395 1395 1396 1396 1396 1397 1397 1397 1398 1398 1398 1399 1399 1400 1401 1402 1402 1403 1403 1404 1404
1445 1444 1443 1442 1440 1439 1437 1435 1434 1432 1430 1428 1426 1424 1423 1421 1419 1417 1416 1414 1412 1411 1409 1408 1407 1405 1404 1403 1402 1401 1400 1399 1398 1397 1396 1396 1395 1395 1394 1394 1393 1393 1393 1393 1392 1392 1392 1392 1393 1393 1393 1393 1393 1394 1394 1394 1394 1394 1395 1395 1396 1397 1398 1398 1399 1399 1400 1401 1401
1444 1442 1441 1440 1439 1437 1435 1434 1432 1430 1428 1426 1424 1422 1420 1418 1416 1415 1413 1411 1410 1408 1407 1405 1404 1403 1402 1400 1399 1399 1398 1396 1395 1394 1394 1394 1393 1392 1392 1391 1390 1390 1390 1390 1389 1389 1389 1389 1390 1390 1390 1390 1390 1390 1391 1391 1391 1391 1392 1392 1393 1394 1394 1395 1395 1396 1397 1397 1398
1442 1440 1439 1438 1436 1435 1433 1431 1429 1428 1425 1424 1421 1419 1417 1415 1414 1412 1410 1409 1407 1406 1404 1403 1401 1400 1399 1398 1397 1396 1395 1394 1393 1392 1392 1391 1390 1390 1389 1389 1388 1388 1387 1387 1387 1386 1386 1386 1387 1387 1387 1387 1387 1387 1388 1388 1388 1388 1389 1389 1389 1390 1390 1391 1392 1393 1393 1394 1395
1439 1438 1437 1435 1434 1432 1430 1429 1427 1425 1423 1421 1419 1417 1414 1413 1411 1409 1407 1406 1404 1403 1402 1400 1399 1397 1396 1395 1394 1393 1392 1392 1391 1390 1389 1389 1388 1387 1386 1386 1386 1385 1384 1384 1384 1384 1384 1384 1384 1384 1384 1384 1384 1384 1384 1384 1385 1385 1385 1385 1386 1386 1387 1388 1389 1389 1390 1390 1391
1437 1436 1434 1433 1431 1429 1428 1426 1424 1422 1420 1418 1416 1414 1412 1409 1408 1406 1404 1403 1402 1400 1399 1397 1396 1395 1394 1393 1392 1391 1390 1389 1388 1387 1386 1386 1385 1384 1384 1384 1383 1382 1382 1381 1381 1380 1380 1380 1380 1380 1380 1381 1381 1381 1381 1381 1382 1382 1382 1382 1383 1383 1384 1384 1385 1386 1386 1387 1387
1434 1433 1432 1430 1429 1427 1425 1423 1421 1419 1417 1415 1413 1411 1409 1406 1404 1403 1401 1400 1399 1397 1396 1394 1393 1392 1391 1390 1389 1388 1387 1386 1385 1385 1384 1383 1383 1382 1381 1381 1380 1379 1379 1378 1378 1378 1378 1377 1377 1377 1377 1377 1377 1378 1378 1378 1379 1379 1379 1379 1380 1380 1381 1381 1382 1383 1383 1384 1384
1432 1430 1429 1427 1426 1424 1422 1420 1418 1416 1414 1412 1409 1407 1405 1403 1401 1400 1398 1397 1395 1394 1393 1392 1391 1390 1389 1388 1387 1386 1385 1384 1383 1382 1381 1380 1380 1379 1379 1378 1377 1376 1376 1376 1375 1375 1375 1374 1374 1374 1374 1374 1374 1374 1375 1375 1375 1376 1376 1376 1377 1377 1378 1378 1379 1379 1380 1380 1381
1429 1428 1426 1425 1423 1421 1419 1417 1415 1413 1410 1408 1406 1404 1402 1400 1399 1397 1395 1394 1392 1391 1390 1389 1388 1387 1386 1385 1384 1383 1382 1381 1380 1379 1379 1378 1377 1377 1376 1375 1374 1374 1373 1373 1373 1372 1372 1372 1372 1371 1371 1371 1371 1371 1371 1372 1372 1372 1373 1373 1374 1374 1375 1375 1376 1376 1377 1377 1378
1427 1425 1424 1422 1420 1418 1416 1414 1412 1410 1407 1405 1403 1401 1399 1397 1395 1394 1392 1391 1389 1388 1387 1386 1385 1384 1384 1383 1381 1380 1379 1378 1377 1377 1376 1375 1374 1374 1373 1372 1371 1371 1370 1370 1370 1370 1370 1369 1369 1369 1368 1368 1368 1368 1368 1368 1369 1369 1369 1370 1370 1371 1371 1372 1372 1372 1373 1374 1375
1425 1423 1421 1419 1418 1416 1414 1411 1409 1407 1404 1402 1400 1398 1396 1394 1393 1391 1389 1388 1387 1386 1384 1384 1383 1382 1381 1380 1379 1378 1376 1375 1375 1374 1373 1372 1371 1371 1370 1369 1369 1368 1368 1368 1368 1368 1367 1367 1366 1366 1365 1364 1364 1364 1365 1365 1365 1365 1366 1366 1367 1367 1367 1367 1368 1369 1369 1370 1371
1422 1420 1419 1417 1415 1413 1411 1409 1406 1404 1402 1400 1398 1396 1394 1392 1390 1389 1387 1385 1384 1383 1382 1381 1380 1379 1378 1377 1375 1374 1374 1373 1372 1371 1370 1369 1369 1368 1367 1366 1365 1365 1365 1365 1365 1365 1365 1364 1364 1364 1363 1362 1361 1361 1361 1362 1362 1362 1363 1363 1363 1363 1363 1364 1364 1365 1366 1367 1368
1420 1418 1416 1414 1412 1410 1408 1406 1404 1401 1399 1397 1395 1393 1391 1389 1388 1386 1384 1383 1382 1381 1379 1378 1377 1376 1375 1374 1373 1372 1371 1370 1369 1368 1367 1366 1365 1364 1364 1363 1363 1362 1362 1362 1362 1362 1362 1362 1362 1362 1361 1360 1359 1358 1358 1358 1359 1359 1359 1359 1359 1359 1360 1360 1361 1362 1363 1363 1364
1418 1415 1413 1411 1409 1407 1405 1403 1401 1399 1397 1394 1392 1390 1389 1387 1385 1384 1382 1381 1379 1378 1377 1376 1375 1374 1372 1371 1370 1369 1368 1367 1366 1365 1364 1363 1362 1361 1361 1360 1360 1359 1359 1360 1359 1359 1359 1359 1359 1359 1359 1359 1357 1355 1354 1354 1355 1355 1355 1355 1355 1356 1356 1357 1358 1359 1359 1360 1361
1415 1413 1411 1409 1407 1404 1403 1401 1399 1396 1394 1392 1389 1388 1386 1384 1383 1381 1380 1379 1377 1376 1375 1374 1372 1371 1369 1368 1367 1366 1365 1364 1363 1362 1361 1360 1359 1359 1358 1358 1357 1357 1357 1357 1357 1357 1357 1356 1356 1357 1357 1357 1356 1354 1352 1351 1352 1352 1352 1352 1352 1353 1353 1354 1355 1355 1356 1357 1358
1413 1410 1408 1406 1404 1402 1400 1398 1396 1394 1391 1389 1388 1386 1384 1382 1381 1379 1378 1377 1375 1374 1372 1371 1369 1368 1367 1365 1364 1363 1362 1361 1360 1359 1358 1357 1356 1356 1355 1354 1354 1354 1354 1354 1354 1354 1354 1354 1354 1354 1354 1354 1355 1353 1351 1349 1349 1349 1349 1349 1349 1349 1350 1351 1352 1352 1353 1354 1355
1410 1408 1406 1404 1401 1399 1397 1395 1393 1391 1389 1387 1385 1384 1382 1380 1379 1377 1376 1374 1373 1372 1370 1369 1367 1366 1364 1363 1362 1360 1359 1358 1357 1356 1355 1354 1354 1353 1352 1351 1351 1351 1351 1351 1352 1352 1351 1351 1351 1351 1352 1352 1352 1351 1350 1348 1347 1346 1345 1345 1346 1346 1347 1348 1349 1349 1350 1351 1352
1408 1406 1404 1401 1399 1397 1395 1393 1391 1389 1387 1385 1383 1382 1380 1378 1376 1375 1374 1372 1371 1369 1368 1366 1365 1363 1362 1360 1359 1358 1357 1355 1354 1354 1353 1352 1351 1350 1349 1348 1348 1348 1349 1349 1349 1349 1349 1349 1349 1349 1349 1349 1349 1349 1348 1347 1345 1343 1343 1342 1343 1344 1344 1345 1346 1347 1348 1349 1350
1406 1403 1401 1399 1397 1394 1392 1390 1389 1387 1384 1383 1381 1379 1378 1376 1374 1373 1371 1370 1369 1367 1365 1364 1362 1361 1359 1358 1357 1355 1354 1353 1352 1351 1350 1349 1349 1348 1346 1345 1345 1345 1346 1346 1346 1346 1346 1346 1346 1347 1347 1347 1347 1346 1346 1345 1343 1341 1340 1340 1340 1340 1341 1342 1343 1344 1345 1346 1347
1403 1401 1399 1396 1394 1392 1390 1388 1386 1384 1382 1380 1378 1377 1375 1374 1372 1370 1369 1368 1366 1364 1363 1361 1360 1359 1357 1355 1354 1353 1352 1351 1350 1349 1348 1347 1346 1345 1344 1343 1343 1343 1344 1344 1344 1344 1344 1344 1344 1344 1344 1344 1344 1343 1343 1343 1341 1340 1338 1338 1337 1338 1338 1339 1340 1341 1342 1343 1344
1401 1399 1396 1394 1392 1390 1388 1386 1384 1382 1379 1378 1376 1374 1373 1371 1369 1368 1367 1365 1364 1362 1360 1359 1358 1356 1354 1353 1352 1350 1349 1349 1347 1346 1345 1344 1344 1342 1341 1340 1340 1340 1341 1341 1341 1341 1341 1341 1341 1342 1342 1341 1340 1340 1340 1340 1339 1338 1337 1336 1335 1335 1336 1336 1337 1338 1339 1340 1341
1399 1397 1394 1392 1389 1387 1385 1383 1381 1379 1377 1375 1374 1372 1370 1369 1367 1366 1364 1363 1362 1360 1358 1357 1355 1354 1352 1351 1349 1348 1347 1346 1345 1344 1343 1342 1341 1340 1339 1338 1338 1338 1338 1339 1339 1339 1339 1339 1339 1339 1339 1339 1338 1337 1337 1337 1337 1336 1335 1334 1333 1333 1333 1334 1334 1335 1335 1336 1338
1397 1394 1392 1389 1387 1384 1383 1381 1379 1377 1375 1373 1371 1369 1368 1367 1365 1364 1362 1361 1359 1358 1356 1354 1353 1351 1350 1349 1347 1345 1344 1343 1342 1341 1340 1339 1338 1338 1337 1336 1335 1335 1335 1336 1336 1336 1337 1337 1337 1337 1337 1336 1335 1334 1334 1334 1334 1334 1333 1332 1331 1331 1330 1331 1331 1332 1332 1333 1334
1394 1392 1389 1387 1384 1382 1380 1378 1376 1374 1373 1371 1369 1367 1366 1364 1363 1361 1360 1359 1357 1356 1354 1352 1350 1349 1348 1347 1345 1344 1342 1340 1340 1339 1338 1337 1336 1335 1335 1334 1333 1332 1333 1333 1334 1334 1334 1334 1334 1334 1334 1334 1333 1332 1331 1331 1331 1331 1331 1330 1330 1329 1328 1328 1328 1329 1329 1330 1331
1391 1389 1387 1384 1382 1380 1378 1375 1374 1372 1370 1369 1367 1365 1364 1362 1361 1359 1358 1356 1355 1354 1352 1350 1348 1347 1346 1344 1343 1341 1339 1338 1337 1336 1335 1334 1334 1333 1332 1331 1330 1330 1330 1330 1331 1331 1331 1331 1331 1331 1331 1331 1330 1329 1329 1329 1328 1328 1328 1328 1328 1327 1326 1326 1326 1326 1326 1327 1328
Wind_Speed
21 22 24 25 26 28 29 30 31 32 33 33 34 35 36 37 38 39 39 40 41 42 43 44 44 45 46 46 47 47 47 47 47 47 47 47 46 46 46 46 46 46 46 47 47 48 49 50 51 52 52 52 53 53 53 53 53 53 53 53 53 53 53 52 52 52 51 51 50
21 22 23 25 26 28 29 30 31 32 33 33 34 35 36 37 38 39 39 40 41 41 42 43 43 44 45 46 47 47 48 48 48 47 47 46 46 46 45 45 45 45 45 45 46 47 48 49 50 51 52 52 53 53 53 53 53 53 53 53 53 53 53 53 53 52 52 51 50
22 23 24 25 26 28 29 30 31 32 32 33 34 35 36 37 38 39 39 40 40 41 41 42 43 44 45 46 46 47 47 48 48 47 47 46 46 45 45 44 44 44 44 44 45 46 47 48 50 51 52 52 53 53 53 53 53 53 53 54 53 53 53 53 53 52 51 50 50
24 24 25 26 27 28 29 30 31 32 32 33 34 35 36 37 38 39 40 40 40 41 41 42 43 43 44 45 46 47 47 47 47 47 47 46 46 45 44 44 44 43 43 43 44 45 46 47 48 50 51 53 53 54 54 53 53 53 53 53 53 53 53 53 53 52 51 50 50
24 25 26 27 27 28 28 29 30 31 32 32 33 35 36 37 38 39 40 40 41 41 41 41 42 43 43 44 45 46 47 47 47 46 46 46 45 44 44 43 43 43 42 42 43 43 44 46 47 49 51 52 53 53 53 53 53 53 53 53 53 53 53 53 52 52 51 50 50
24 25 26 26 27 27 28 28 29 30 31 31 33 35 36 37 38 39 40 40 41 41 41 41 42 42 43 44 44 45 46 46 46 46 46 45 44 44 43 43 42 42 41 41 41 42 43 44 46 48 50 51 52 52 52 52 52 53 53 53 53 53 52 52 52 52 51 50 50
23 24 24 25 25 26 27 27 28 29 30 31 33 34 35 36 37 38 39 40 40 41 41 41 42 42 43 43 44 45 45 46 46 45 45 45 44 43 43 42 42 41 41 41 40 41 42 43 45 47 49 50 51 52 52 52 52 53 53 53 53 53 52 52 52 52 51 51 50
22 22 23 23 24 24 25 26 26 27 29 30 31 32 33 34 36 37 38 39 40 41 41 41 42 42 43 43 44 44 45 45 45 45 44 44 44 43 42 42 41 41 40 40 40 40 41 42 44 46 48 49 51 51 52 52 52 53 53 53 53 53 53 53 53 52 52 51 51
21 22 22 22 23 23 23 24 25 26 27 28 29 30 31 32 34 35 37 38 39 39 40 41 42 42 42 43 43 43 44 44 44 44 44 43 43 43 42 41 41 41 40 39 39 39 40 41 43 45 47 48 50 51 51 52 52 52 53 53 53 53 53 53 53 53 53 52 51
22 22 23 23 23 23 24 24 25 25 26 27 28 29 29 30 32 33 34 36 36 38 39 40 41 41 42 43 43 43 43 43 43 43 43 43 43 43 42 42 41 41 40 39 39 39 40 41 43 44 46 47 48 49 50 51 52 52 52 53 53 53 53 53 53 53 53 52 52
23 24 24 25 25 26 26 26 26 27 27 28 28 28 28 29 30 31 32 33 34 36 37 38 39 40 41 42 42 42 42 42 42 42 43 43 43 43 42 42 41 41 40 39 39 39 40 41 43 44 45 46 47 48 49 51 51 52 52 52 53 53 53 54 54 53 53 53 52
25 26 26 27 28 28 29 29 29 29 30 30 30 30 29 29 29 29 30 31 33 34 35 36 37 39 40 41 41 41 41 41 41 42 42 43 43 42 42 41 41 41 40 40 39 39 40 41 42 43 44 45 46 47 48 50 51 51 52 52 53 53 53 54 54 54 53 53 52
27 28 28 29 30 31 31 32 32 32 32 32 32 32 31 31 30 30 30 30 31 32 33 34 35 37 39 40 40 40 41 41 41 41 42 42 42 42 42 41 41 41 41 40 40 40 41 42 42 43 43 44 45 46 47 48 50 51 51 52 53 53 53 54 54 54 54 53 53
28 29 30 31 32 33 34 34 34 35 35 34 34 34 33 33 32 31 31 31 31 31 31 32 33 35 36 37 38 39 39 40 40 41 41 41 41 41 41 41 41 41 41 40 40 41 41 42 42 42 43 43 44 45 46 47 49 50 51 52 52 53 53 53 54 54 54 53 53
29 30 32 33 34 35 36 36 37 37 37 37 36 36 35 35 34 33 32 33 32 32 31 31 32 33 34 35 36 36 37 37 38 39 39 39 39 39 39 39 39 40 40 40 40 41 41 42 42 42 42 43 43 44 45 47 48 49 50 51 52 52 52 53 53 53 54 54 54
30 31 33 34 36 37 38 38 39 39 39 39 39 38 37 36 35 34 34 34 33 33 32 32 32 31 32 32 33 34 35 35 36 36 37 37 37 37 37 37 38 38 38 38 39 40 40 41 42 42 42 42 43 44 45 46 47 48 49 50 50 51 52 52 53 53 54 54 54
30 32 34 35 37 38 39 40 40 41 41 41 41 40 39 38 37 36 35 35 34 34 33 33 32 32 31 31 32 32 33 34 34 35 35 35 35 35 36 36 36 36 36 37 37 38 39 39 40 41 42 42 43 43 44 45 47 48 49 49 50 51 51 52 53 53 54 54 54
31 32 34 36 37 39 40 41 42 42 42 42 42 42 41 40 39 38 37 36 35 34 34 34 33 32 32 32 32 32 32 33 34 34 34 34 34 34 34 34 34 35 35 36 36 37 37 38 39 40 41 42 42 43 44 45 46 47 48 49 50 50 51 52 52 53 53 54 54
32 33 35 37 38 40 41 42 43 43 43 43 43 43 42 41 41 40 39 38 37 36 35 34 34 33 33 33 33 32 33 33 33 33 33 33 33 34 34 33 33 34 34 35 35 36 36 37 38 39 40 41 42 43 44 45 46 47 48 49 50 50 51 51 52 53 53 53 53
33 35 36 38 39 41 42 43 44 44 44 44 44 43 42 42 41 41 40 39 38 37 36 35 34 34 34 34 34 34 34 34 34 34 34 34 33 33 33 33 33 33 33 34 34 35 35 36 37 38 39 40 41 42 43 44 46 47 48 49 50 50 51 51 52 52 53 53 53
34 36 38 39 41 42 43 44 45 45 46 45 44 43 42 41 41 40 40 40 39 38 37 36 36 35 35 34 34 35 35 35 35 35 35 35 34 34 34 33 33 33 33 34 34 34 35 36 37 38 39 40 41 42 43 44 45 46 47 48 49 50 51 51 52 52 53 53 54
36 37 39 40 42 43 44 45 46 46 47 46 45 43 42 40 40 39 39 39 39 38 38 38 37 36 35 35 35 35 35 35 36 36 36 36 36 35 35 34 34 34 34 34 34 35 35 36 37 37 38 39 40 41 42 43 44 46 47 48 49 49 50 51 52 52 53 53 54
37 39 40 42 43 44 45 46 47 47 47 47 46 44 42 40 38 38 37 38 38 38 38 38 38 37 36 35 35 35 35 36 36 37 37 37 37 36 36 35 35 35 35 35 35 35 36 36 37 37 38 39 40 41 42 43 44 45 46 47 48 49 50 51 51 52 53 53 53
38 40 41 43 44 45 46 47 48 48 48 47 46 44 41 39 38 36 36 36 37 37 38 38 38 37 36 36 35 35 36 36 37 37 37 38 37 37 37 37 36 36 36 36 36 36 36 36 37 38 38 39 40 40 41 42 43 44 46 47 48 48 49 50 51 52 52 53 53
39 41 42 44 45 46 47 48 48 49 48 47 46 44 41 39 37 35 35 35 35 36 37 37 37 37 36 36 36 36 36 36 37 37 37 37 37 37 37 37 37 37 37 37 36 36 36 36 37 37 38 39 39 40 41 41 43 44 45 46 47 48 49 50 50 51 52 53 53
41 42 43 45 46 47 47 48 49 49 48 47 45 43 41 38 37 35 34 34 35 35 35 36 36 36 36 36 36 36 36 37 37 37 37 37 37 37 37 37 37 37 37 37 37 36 36 36 36 37 37 38 39 40 41 41 42 43 44 45 46 47 49 50 50 51 51 52 53
41 43 44 45 46 47 48 49 49 49 48 46 44 42 40 38 36 35 34 34 34 34 35 35 35 36 36 36 36 36 36 36 36 36 36 36 36 36 37 37 37 37 37 36 36 36 36 36 36 36 37 38 38 39 40 41 41 42 43 45 46 47 48 50 50 50 51 51 52
42 44 45 46 47 48 49 49 49 48 47 46 43 41 39 38 36 35 35 34 34 34 35 35 35 35 35 36 36 36 36 36 36 36 36 36 36 36 36 36 36 36 36 35 35 35 35 35 35 35 36 37 38 38 39 39 40 41 42 44 46 47 48 49 49 50 50 50 51
43 44 46 47 48 49 49 49 48 47 46 45 43 41 39 37 36 35 35 35 34 35 35 35 35 35 35 36 36 36 36 35 35 35 35 35 36 36 36 36 35 35 35 34 34 34 34 34 34 34 34 36 37 38 38 38 39 40 41 43 45 46 47 48 49 49 49 50 50
44 45 46 47 48 49 49 49 48 47 45 44 42 41 39 38 36 35 35 35 35 35 35 35 35 36 36 36 36 36 36 35 35 35 35 35 36 36 35 35 35 34 33 33 33 33 33 33 33 33 33 34 36 38 39 39 39 39 40 42 43 44 46 47 48 48 49 49 49
44 46 47 48 49 49 49 48 47 46 44 43 41 40 38 37 36 35 35 34 35 35 35 35 36 36 37 37 36 36 36 36 35 35 35 36 36 35 35 34 34 33 32 32 32 32 32 32 32 32 32 32 34 36 39 39 40 40 40 41 42 43 44 45 46 47 48 48 48
45 46 47 48 49 49 49 48 46 45 43 41 40 38 37 37 36 35 34 34 34 34 35 35 36 37 37 37 37 37 36 36 36 36 36 36 36 36 35 34 34 33 32 31 31 31 31 31 31 31 31 31 32 35 38 40 41 41 41 41 41 42 42 43 44 45 46 47 48
45 46 47 48 48 49 48 47 45 43 41 40 38 37 37 36 35 35 34 33 33 34 35 35 36 37 37 37 37 37 37 36 36 36 36 36 36 36 35 35 35 34 33 32 31 31 30 30 30 30 31 31 31 33 37 40 41 42 42 42 42 42 41 41 42 43 44 45 46
45 46 47 48 48 48 48 46 44 42 40 39 38 37 36 35 35 34 33 33 33 33 34 35 35 36 37 37 37 37 37 37 36 36 36 36 36 36 36 36 35 34 33 32 31 31 30 30 29 29 30 30 30 32 35 39 41 43 44 44 43 43 42 42 41 41 42 43 44
45 46 47 47 48 48 47 46 43 41 39 38 37 37 36 35 34 34 33 33 32 33 33 34 35 35 36 36 37 37 37 37 37 37 36 36 36 37 37 37 36 35 34 33 32 31 30 29 29 28 28 29 29 31 34 37 40 43 44 45 45 44 44 43 42 41 41 41 41
45 46 46 47 47 47 46 45 43 41 39 38 37 37 36 35 35 34 33 33 33 33 33 34 34 35 36 36 37 37 37 37 37 37 37 37 37 38 38 38 37 36 35 34 33 32 31 30 29 28 27 28 29 31 33 35 38 41 44 45 46 46 45 45 44 43 42 41 40
45 45 46 46 47 47 46 44 42 41 39 38 37 36 36 35 35 34 34 33 33 33 34 34 34 35 36 36 37 37 37 37 37 37 37 37 37 38 38 38 38 37 36 34 33 32 31 30 29 28 27 28 30 31 33 34 37 40 42 44 45 46 46 46 45 45 44 42 41
45 45 46 46 47 46 46 44 42 40 39 38 37 36 36 35 35 34 34 33 33 33 34 34 35 35 35 36 36 37 37 37 37 37 38 38 38 38 38 39 38 37 36 35 34 32 31 30 29 28 28 28 30 31 32 34 36 38 41 42 44 45 45 46 46 46 45 45 43
46 46 46 46 46 46 45 43 41 40 38 37 37 36 36 35 35 34 34 33 33 33 34 35 35 35 35 36 36 37 37 37 37 37 38 38 38 38 38 39 39 38 37 35 34 33 31 30 29 28 28 28 30 31 32 34 36 38 40 41 42 43 44 45 45 45 46 46 44
47 46 46 46 46 45 44 42 41 39 38 37 36 36 35 35 34 34 34 33 33 34 34 35 36 36 36 35 36 37 38 38 38 38 38 38 38 38 38 38 39 38 37 36 35 33 32 30 29 28 28 28 30 31 32 34 35 37 39 40 41 41 42 43 44 44 45 45 45
47 47 46 46 45 44 43 41 40 38 37 36 35 35 35 35 34 34 34 34 34 34 35 35 36 36 36 36 36 37 38 38 38 38 38 38 38 38 38 38 39 38 38 36 35 34 32 31 29 28 28 28 29 31 32 34 35 37 39 40 41 41 41 41 42 43 43 44 44
Wind_Direction
301 300 299 298 298 297 296 297 296 295 294 292 290 289 288 286 284 284 283 281 279 278 278 278 277 277 277 277 276 276 276 275 274 274 273 273 272 271 271 269 268 267 265 263 262 260 258 257 256 254 254 253 252 252 252 251 250 249 248 247 246 246 245 244 244 244 244 244 244
308 306 304 301 300 300 299 299 299 298 297 296 294 292 290 288 286 285 285 283 282 281 280 278 278 276 276 276 276 276 276 275 275 274 274 273 273 272 271 270 269 268 266 264 262 260 258 257 255 254 253 253 252 251 251 251 250 248 247 247 246 246 245 244 244 245 244 244 244
312 309 307 304 302 301 300 300 301 300 300 298 296 294 292 289 288 287 286 285 284 282 280 278 277 276 275 275 276 276 276 275 275 274 274 274 273 273 272 271 269 268 266 264 262 260 258 257 255 254 253 253 252 251 251 251 249 248 247 246 246 245 244 244 244 244 243 242 242
311 310 307 305 304 303 302 301 302 302 301 300 297 294 292 290 289 288 287 286 284 281 279 278 277 276 275 274 274 275 275 275 274 274 273 274 273 273 272 271 270 268 267 265 263 261 259 257 256 254 254 253 253 252 251 251 249 248 247 247 246 245 244 244 244 243 242 241 240
311 310 309 308 307 306 305 304 302 302 301 299 296 293 291 290 289 288 287 286 284 282 281 280 278 276 275 274 273 274 274 274 274 274 274 274 274 274 273 272 270 269 267 265 263 261 259 257 256 254 254 254 253 253 252 252 250 248 247 247 246 244 244 243 243 242 241 240 239
312 312 311 311 310 308 307 305 303 301 299 297 293 291 290 290 289 288 287 286 285 284 282 280 278 276 275 274 273 273 273 273 273 274 274 274 274 274 273 272 271 269 268 266 264 262 260 257 255 254 254 253 253 253 252 251 250 248 247 246 245 244 243 242 242 242 241 239 239
315 314 313 312 311 308 306 305 303 300 297 294 291 290 291 291 290 288 287 287 286 284 281 279 277 276 275 274 273 273 273 273 273 274 274 274 274 274 273 272 271 270 268 266 264 262 260 257 255 254 253 253 252 251 251 250 249 248 247 246 245 244 243 242 242 241 240 239 239
321 320 319 317 314 311 308 306 303 299 296 293 292 292 293 292 290 289 287 286 284 282 281 280 278 277 276 274 274 273 272 272 273 273 274 274 274 274 273 272 271 269 268 266 264 262 260 258 255 254 253 252 251 251 250 249 248 248 247 247 246 245 244 243 242 241 240 240 240
328 328 326 324 321 318 315 311 307 302 299 297 297 297 296 293 290 288 286 284 283 283 282 280 278 277 276 275 274 273 272 272 272 273 273 274 273 273 272 272 270 269 268 266 264 262 260 258 256 255 254 253 252 251 251 250 249 248 248 247 247 245 244 243 242 241 240 240 240
335 334 334 332 330 328 325 321 316 311 307 304 304 302 299 295 292 289 287 285 285 283 281 279 278 277 276 275 274 273 272 271 271 272 272 273 272 272 272 271 271 270 268 267 265 263 261 259 257 256 255 254 253 252 251 251 250 249 249 248 247 246 245 244 242 241 241 241 240
340 340 339 339 337 336 333 330 326 323 318 315 312 310 305 301 296 293 290 288 284 281 280 279 278 276 275 275 274 273 272 271 271 271 271 272 272 272 272 272 272 271 269 268 266 263 261 259 258 257 256 255 254 252 252 251 250 250 249 249 248 246 245 244 243 242 241 241 241
343 343 343 342 341 340 337 335 332 330 327 324 321 318 314 309 304 300 295 290 285 283 281 280 277 275 274 274 273 272 271 271 270 270 270 271 271 271 272 272 272 271 270 268 266 264 262 260 259 258 257 256 254 253 252 251 251 250 249 249 248 247 246 245 244 243 242 241 241
345 345 344 343 342 340 338 336 334 332 330 328 326 324 320 316 312 306 299 294 290 287 284 281 277 275 273 273 272 272 271 270 270 269 269 270 270 271 271 271 271 271 270 268 266 264 262 261 260 259 258 257 256 254 253 252 251 250 250 249 248 247 246 246 245 244 243 242 241
345 344 344 342 341 339 337 336 334 332 330 329 328 326 323 320 316 311 305 300 297 293 289 284 280 276 274 272 272 271 270 270 269 268 268 269 269 270 270 270 271 270 269 268 266 265 263 262 262 261 260 258 257 256 255 254 253 252 251 250 249 248 248 247 246 245 243 242 241
344 343 342 341 340 338 336 334 332 331 329 328 326 325 323 321 318 315 310 307 304 300 295 289 284 280 277 274 273 272 271 270 269 268 268 268 269 269 269 270 270 270 269 268 267 265 265 264 263 263 261 260 259 258 257 255 254 254 253 252 251 251 250 248 247 245 244 242 241
343 342 341 340 339 337 335 334 332 330 328 326 325 323 321 319 317 315 313 310 308 304 299 294 290 286 281 278 275 274 272 271 270 269 269 269 269 270 270 271 271 270 269 268 267 267 266 265 264 263 263 261 260 259 258 256 256 255 255 254 253 252 251 250 248 246 245 244 242
341 340 340 339 337 336 335 333 331 329 327 325 323 321 319 317 315 313 312 310 309 306 303 299 295 290 285 281 278 275 273 273 273 272 272 272 272 272 273 273 273 272 271 270 268 267 267 266 265 263 263 262 261 259 258 257 256 256 255 255 254 253 252 251 249 248 247 245 244
339 338 337 336 335 335 333 332 330 329 327 325 322 320 317 315 313 311 309 308 307 305 303 301 298 293 288 284 280 277 274 273 274 274 274 275 274 274 274 275 275 274 272 271 269 268 267 266 265 263 262 261 260 259 258 257 256 256 256 255 254 253 253 251 250 249 247 246 245
337 336 335 335 334 333 332 331 330 328 326 324 322 319 317 314 311 308 307 305 305 303 301 300 297 294 290 286 283 279 276 275 274 275 275 275 275 275 275 276 276 275 274 272 271 270 269 267 265 263 261 260 259 258 257 256 256 255 255 254 254 253 252 251 251 249 248 247 246
335 335 334 333 333 332 331 330 329 328 326 324 322 319 316 313 310 307 304 303 302 301 299 297 295 293 291 288 284 281 279 277 276 275 276 276 275 275 276 277 276 276 275 275 274 273 270 268 265 262 261 259 258 257 256 255 255 254 254 254 253 253 252 251 251 250 249 248 247
334 334 333 333 332 331 331 330 329 328 326 325 322 320 316 313 310 306 304 302 301 298 296 294 294 292 291 288 285 283 281 279 277 276 276 276 276 276 277 277 277 277 277 276 276 274 272 269 266 263 261 259 257 257 256 255 254 253 253 253 253 252 252 251 251 249 248 248 247
334 334 333 332 332 331 330 329 329 328 327 325 323 321 317 314 310 307 304 302 299 296 294 293 293 292 291 289 287 285 283 280 278 277 276 276 276 277 277 277 277 277 277 277 277 276 274 271 267 264 261 259 257 256 255 254 253 253 253 252 252 252 252 251 250 249 248 247 247
334 333 333 332 331 330 330 329 329 328 327 326 324 322 319 315 312 308 305 302 299 297 295 293 293 292 291 290 288 286 283 281 279 278 277 277 277 277 277 277 277 277 277 278 277 276 274 271 268 265 262 260 258 256 255 254 253 253 252 252 252 252 251 251 250 249 248 247 246
333 333 333 332 331 331 330 330 329 329 328 327 325 323 320 317 314 310 307 303 300 298 296 295 294 293 291 290 288 286 283 281 280 279 279 278 277 277 277 277 277 278 279 279 278 276 274 270 268 265 263 261 259 257 255 254 253 253 252 252 252 251 251 250 249 248 248 247 246
333 333 332 332 331 331 330 330 330 329 329 328 326 324 322 319 316 313 309 306 303 301 299 297 296 294 292 290 288 286 284 283 282 281 280 279 279 278 278 277 278 279 279 279 278 276 274 272 269 267 264 262 260 258 256 255 254 253 252 252 251 251 250 250 249 248 247 247 246
332 332 332 332 331 331 331 331 330 330 329 328 327 325 323 320 318 315 312 309 306 304 302 300 298 296 294 292 290 288 286 285 284 283 282 281 280 279 279 278 278 279 279 279 278 276 274 272 270 268 266 263 260 258 256 255 254 253 252 252 251 250 249 248 248 248 247 247 247
332 332 332 331 331 331 331 331 331 330 329 328 327 325 323 321 319 316 314 311 309 307 304 302 300 298 296 294 292 290 288 288 287 286 285 284 282 281 280 279 279 279 279 279 278 276 274 271 269 267 266 264 262 259 257 255 255 253 252 251 250 250 249 248 248 247 247 247 247
331 332 331 331 331 331 331 331 331 330 329 328 326 325 323 321 319 317 315 313 311 308 306 304 302 301 298 296 294 293 292 291 290 288 287 286 284 283 281 280 280 280 280 280 278 276 273 270 267 264 263 263 262 261 259 257 255 254 252 251 250 249 249 248 248 248 247 246 246
331 331 331 332 332 332 332 331 331 330 328 327 326 325 323 321 319 317 315 313 311 309 307 305 304 302 299 297 297 296 296 294 292 290 288 286 285 284 283 282 282 282 282 281 278 276 273 270 266 262 259 259 260 261 261 259 257 255 253 251 250 249 248 248 247 247 246 246 245
331 331 331 332 332 332 332 331 330 329 328 327 326 324 323 321 319 318 316 313 311 309 308 306 304 301 299 299 299 298 297 295 294 291 289 287 286 286 285 285 284 284 284 282 279 276 273 270 266 262 258 254 254 257 259 259 258 256 254 252 250 249 248 247 246 245 245 244 243
331 331 331 332 332 331 331 330 329 328 327 326 324 323 322 320 319 317 315 313 311 310 308 306 303 301 301 301 301 299 298 297 295 293 290 289 288 288 288 287 286 286 285 282 279 276 274 270 267 263 258 253 247 248 253 257 258 257 255 254 252 251 249 248 247 246 244 243 242
331 331 331 331 331 331 330 329 328 327 326 324 322 321 320 319 318 317 315 313 311 309 307 305 303 302 302 302 301 300 299 297 296 294 293 291 290 290 289 288 287 286 285 283 280 277 274 270 267 263 259 254 248 247 249 253 255 257 257 256 255 253 251 250 248 246 245 244 242
331 330 330 330 329 329 329 328 327 325 324 322 320 319 319 318 317 316 315 313 311 309 306 304 303 302 302 301 300 300 299 298 296 295 294 293 292 291 289 288 287 287 286 284 281 278 275 271 267 263 260 256 251 247 247 249 252 255 256 256 256 255 253 251 250 248 247 245 244
330 330 329 328 328 328 327 327 325 323 322 320 319 318 318 318 317 317 315 314 312 309 307 305 304 303 302 302 300 299 298 298 297 296 295 294 292 291 289 288 288 287 286 284 282 280 277 273 268 264 260 257 251 246 244 246 249 251 253 254 255 255 254 253 252 251 249 248 246
330 328 326 326 326 325 325 325 323 322 320 318 318 318 318 317 317 317 316 314 312 310 308 306 306 305 303 302 301 300 299 298 298 297 296 294 292 290 289 288 289 288 287 284 283 281 278 275 270 266 261 256 249 243 241 242 246 249 251 253 254 254 254 253 253 252 252 250 247
328 325 323 323 323 323 323 323 322 320 319 317 317 317 317 317 317 316 316 315 313 310 308 307 307 305 303 302 301 300 299 298 298 297 295 293 291 289 289 289 289 289 287 285 283 281 279 276 272 268 262 256 249 244 240 240 242 246 249 251 252 253 253 253 252 253 253 252 250
325 322 321 320 320 321 321 321 320 319 318 316 316 316 316 316 316 316 315 314 312 310 309 308 306 305 304 303 302 301 300 299 297 295 294 292 290 289 288 288 289 288 287 285 283 281 279 276 273 269 263 258 253 248 243 240 240 243 246 249 250 251 252 252 252 252 253 253 252
322 320 319 318 318 319 319 319 319 318 317 316 316 316 316 316 315 315 315 313 311 310 309 308 306 305 305 304 303 301 300 298 296 294 292 291 290 289 288 288 288 288 287 285 283 281 278 276 272 268 263 258 254 250 245 242 240 241 243 246 248 250 250 250 250 250 251 252 252
321 320 318 317 317 317 317 317 317 317 316 315 315 315 315 315 314 314 313 312 310 309 307 307 306 305 305 304 302 300 298 297 295 293 291 290 290 289 288 287 287 287 287 285 283 281 279 276 272 268 263 258 254 251 247 244 241 240 241 243 246 248 248 248 248 248 249 250 251
321 319 318 316 315 315 315 315 315 315 315 314 313 313 313 313 313 312 312 311 309 308 306 305 305 305 305 303 301 298 297 296 294 293 291 290 290 289 287 286 286 286 286 285 283 281 280 277 274 269 263 258 253 251 248 245 243 240 240 241 243 245 247 247 247 246 247 248 249
320 319 317 315 314 313 313 313 313 314 313 312 311 311 312 312 312 311 311 310 308 307 305 304 304 304 303 302 300 298 296 294 293 292 291 290 289 288 286 285 285 286 286 285 284 282 280 278 275 271 264 258 253 250 248 246 243 241 240 240 241 243 245 246 246 245 245 245 246